Regional Weather Roundup
Issued by NWS Wakefield, VA

Home | Current Version | Previous Version | Graphics & Text | Print | Product List | Glossary On
Versions: 1 2 3 4 5 6 7 8 9 10 11 12 13 14 15 16 17 18 19 20 21 22 23 24 25 26 27 28 29 30 31 32 33 34 35 36 37 38 39 40 41 42 43 44 45 46 47 48 49 50
000
ASUS41 KAKQ 202010
RWRAKQ

REGIONAL WEATHER ROUNDUP
NATIONAL WEATHER SERVICE WAKEFIELD VA
300 PM EST SAT DEC 20 2014

Note: "fair" indicates few or no clouds below 12,000 feet with no
significant weather and/or obstructions to visibility. * = Denotes
station may not report precipitation (e.g., rain,snow,etc.),
thunder or fog.

VAZ042-051-052>054-056-202100-
NORTHERN VIRGINIA

CITY           SKY/WX    TMP DP  RH WIND       PRES   REMARKS
WASH NATIONAL  PTSUNNY   39  21  48 SE3       30.27F
DULLES         CLOUDY    34  20  56 NW3       30.25F
FORT BELVOIR   MOSUNNY   37  20  52 CALM      30.27S
QUANTICO       PTSUNNY   36  21  54 CALM      30.29R
FREDERICKSBRG* CLOUDY    37  24  58 CALM      30.26S
STAFFORD*      CLOUDY    36  21  53 CALM      30.30S
WARRENTON      CLOUDY    37  29  72 CALM      30.24S
CULPEPER*      CLOUDY    37  25  60 CALM      30.26S
MANASSAS*      MOSUNNY   36  23  60 CALM      30.26F
LEESBURG*      PTSUNNY   36  27  69 MISG      30.26S
WINCHESTER     CLOUDY    36  19  51 CALM      30.22S
FRONT ROYAL*   CLOUDY    34  23  64 NE3       30.21S
LURAY*         CLOUDY    36  28  75 CALM      30.21R
$$

VAZ048-049-060>072-079>083-202100-
CENTRAL AND SOUTH CENTRAL VIRGINIA

CITY           SKY/WX    TMP DP  RH WIND       PRES   REMARKS
RICHMOND       CLOUDY    38  20  48 CALM      30.26S
CHESTERFIELD*  CLOUDY    37  16  41 CALM      30.27S
PETERSBURG*    CLOUDY    39  22  50 CALM      30.27R
HANOVER        CLOUDY    37  21  52 CALM      30.27F
TAPPAHANNOCK*  PTSUNNY   37  21  52 CALM      30.27S
QUINTON*       CLOUDY    37  23  56 CALM      30.26S
CHARLOTTSVILLE CLOUDY    37  24  59 S5        30.22S
GORDONSVILLE*  CLOUDY    35  24  63 CALM      30.23S
ORANGE*        CLOUDY    36  27  69 E3        30.26S
LOUISA*        CLOUDY    37  27  65 CALM      30.23S
BUMPASS*       CLOUDY    35  23  62 CALM      30.25S
FARMVILLE*     CLOUDY    42  25  50 CALM      30.23S
CREWE*         CLOUDY    38  23  56 CALM      30.24R
FORT PICKETT*  CLOUDY    38  24  56 E3        30.24S
CHASE CITY*    CLOUDY    40  29  65 CALM      30.24S
CLARKSVILLE*   CLOUDY    37  30  75 CALM      30.23F
SOUTH HILL*    CLOUDY    38  26  61 CALM      30.30S
LAWRENCEVILLE* CLOUDY    39  26  59 CALM      30.24S
EMPORIA*       CLOUDY    37  28  70 CALM      30.28R
$$

VAZ088>098-202100-
SOUTHEAST VIRGINIA

CITY           SKY/WX    TMP DP  RH WIND       PRES   REMARKS
NORFOLK        CLOUDY    39  28  64 NE6       30.25F
VIRGINIA BEACH CLOUDY    41  28  60 NE6       30.24F
NORFOLK NAVAL  CLOUDY    43  30  60 NE5       30.27F
WEST POINT*    CLOUDY    39  23  52 CALM      30.28S
SALUDA*        MOCLDY    36  26  67 N5        30.25F
NEWPORT NEWS   CLOUDY    43  28  55 CALM      30.26S
LANGLEY AFB    CLOUDY    39  29  67 NE5       30.26F
FORT EUSTIS    CLOUDY    39  27  61 NW3       30.24F
WILLIAMSBURG*  CLOUDY    43  28  56 CALM      30.27S
HR EXEC AP*    CLOUDY    41  30  65 NE3       30.27S
FRANKLIN*      CLOUDY    39  28  65 CALM      30.26S
WAKEFIELD      PTSUNNY   40  26  57 CALM      30.26S
$$

VAZ020-022-025-037-045-202100-
WEST CENTRAL AND SOUTHWEST VIRGINIA

CITY           SKY/WX    TMP DP  RH WIND       PRES   REMARKS
STAUNTON*      CLOUDY    36  25  65 CALM      30.20S
WAYNESBORO*    CLOUDY    36  25  65 SE3       30.17S
HOT SPRINGS VA CLOUDY    32  28  84 W12       30.05S WCI  23
LYNCHBURG      CLOUDY    36  26  67 SW3       30.22F
DANVILLE       CLOUDY    40  27  59 CALM      30.24S
SOUTH BOSTON*  CLOUDY    38  26  60 CALM      30.24S
MARTINSVILLE   CLOUDY    40  28  62 CALM      30.24R
ROANOKE        CLOUDY    38  25  59 CALM      30.21S
BLACKSBURG     CLOUDY    34  28  79 CALM      30.18R
DUBLIN*        CLOUDY    37  32  81 CALM      30.17S
MARION*        CLOUDY    37  32  82 CALM      30.16S
HILLSVILLE*    CLOUDY    38  30  73 CALM      30.13S
RICHLANDS*     CLOUDY    34  32  91 CALM      30.12S FOG
WISE*          CLOUDY    39  32  75 CALM      30.13F
ABINGDON*      CLOUDY    42  36  80 CALM      30.15R
$$

MDZ021>025-VAZ099-100-202100-
SOUTHERN MARYLAND AND THE DELMARVA PENINSULA

CITY           SKY/WX    TMP DP  RH WIND       PRES   REMARKS
PATUXENT RIVER CLOUDY    36  23  59 N5        30.27S
BAY BRIDGE APT   N/A     36  21  55 NW3       30.27
LEONARDTOWN    CLOUDY    36  23  60 CALM      30.28R
DOVER          CLOUDY    35  25  65 E5        30.24S
GEORGETOWN     PTSUNNY   38  24  57 N5        30.26S
EASTON         PTSUNNY   39  27  60 CALM      30.30R
CAMBRIDGE      MOSUNNY   37  25  60 CALM      30.26S
SALISBURY      PTSUNNY   39  24  55 W3        30.26S
OCEAN CITY     PTSUNNY   38  25  59 SE5       30.26S
WALLOPS ISLAND CLOUDY    37  25  61 N3        30.27R
ACCOMACK*      CLOUDY    36  25  64 CALM      30.26S
$$

NCZ012>017-030>032-202100-
NORTH CENTRAL AND EASTERN NORTH CAROLINA

CITY           SKY/WX    TMP DP  RH WIND       PRES   REMARKS
ROANOKE RAPIDS CLOUDY    37  30  75 CALM      30.26R
RALEIGH        CLOUDY    37  33  85 CALM      30.25R
ELIZABETH CITY PTSUNNY   45  30  55 NE6       30.25F
AHOSKIE*       MOSUNNY   40  30  67 CALM      30.26S
EDENTON*       CLOUDY    42  32  67 N5        30.25S
CURRITUCK*     PTSUNNY   41  29  63 NE3       30.26F
KILL DEVIL HLS CLOUDY    42  32  69 N3        30.24S
MANTEO         CLOUDY    42  32  69 N7        30.25S
CAPE HATTERAS  CLOUDY    43  37  79 NE8       30.24S
TARBORO*       CLOUDY    41  32  70 N3        30.27R
GOLDSBORO      CLOUDY    40  39  98 E3        30.23F
WASHINGTON     CLOUDY    39  34  81 CALM      30.26S
GREENVILLE     CLOUDY    41  34  75 CALM      30.26S
NEW BERN       LGT RAIN  43  37  79 N6        30.27R
WILMINGTON     LGT RAIN  45  42  89 N9        30.22S
$$

VAZ048-202100-
ELSEWHERE

CITY           SKY/WX    TMP DP  RH WIND       PRES   REMARKS
HARRISBURG PA  PTSUNNY   34  21  59 W3        30.24F
BALTIMORE      PTSUNNY   37  21  52 NW3       30.25S
ANNAPOLIS      MOSUNNY   36  24  62 E7        30.27S
ANDREWS AFB    CLOUDY    37  21  52 N3        30.24F
PHILADELPHIA   CLOUDY    35  21  56 N3        30.27F
HENDERSON NC   CLOUDY    37  30  77 CALM      30.24S
GREENSBORO     CLOUDY    38  32  79 CALM      30.20F
ROCKY MOUNT    CLOUDY    39  34  82 CALM      30.26R
$$

VAZ100-202100-
MARINE

STATION/POSITION TIME  TEMP    WIND        PRES    WAVE   SWELL
                       AIR SEA DIR/SP/G            HT/PER HT/PER
                 (UTC) (F)     (DEG/KT/KT) (MB)    (FT/S) (FT/S)
CAPE MAY NJ      2000   34 43  330/  4/  5 1024.2F
LEWES DE         2000   35 41   10/  5/  7 1024.4F
15NM E FENWICK I 2000   36 46              1024.2F   1/11
OCEAN-CITY-INLET 2000   37 43   30/  5/  6 1024.3R
WACHAPREAGUE VA  2000   38 40   CALM  /  3 1024.8F
THOMAS POINT MD  2000   35 41   80/  4/  4 1025.9S
GOOSES REEF MD   2000   35      CALM  /  2 1024.1R   0
COVE POINT MD    2000   34      30/  3/  5 1024.8R
SOLOMONS ISLAND  2000      43                N/A
BISHOPS HEAD MD  2000   35 38  240/  2/  3 1024.4S
POTOMAC MD       2000   36 43  320/  4/  4 1023.9F   0
CAMBRIDGE MD     2000   35 40  330/  5/  6 1024.6F
LEWISETTA VA     2000   36 41   40/  2/  4 1024.5F
RAPPAHANNOCK LGT 2000          350/  5/  6 1025.0F
STINGRAY PT      2000   36 44  350/  2/  4 1024.9F   1
YORK RVR RNG VA  2000   38      50/  2/  3 1023.9F
YORKTOWN VA      2000   38 45   10/  1/  3 1024.2F
JAMESTOWN VA     2000   37 45  310/  2/  4   N/A     0
DOMINION TERM VA 2000   39      70/  4/  5 1024.4S
KIPTOPEKE VA     2000      49  360/  5/  6   N/A
CHES BAY BRIDGE  2000   38 45   10/  5/  7 1024.0S
CAPE HENRY VA    2000   37     360/  5/  8 1023.2F
CHESAPEAKE LGHT  1900   38     360/  7/  9 1025.2F
WILLOUBY STN VA  2000   38      50/  6/  7 1024.8S
S CRANEY ISL VA  2000           60/  4/  5 1024.3S
CAPE HENRY BUOY  1900      49                N/A     2/ 6
1ST LANDING BUOY 2000   38 45   40/  2/  4 1024.2F   1/ 3
CAPE CHARLES BUO 2000      47                N/A     2/ 5   2/ 5
64NM E OF VA BCH 2000   42 54  360/ 12/ 14 1023.3F   2/ 6   2/11
DUCK PIER NC     2000   40 46   10/  9/ 12 1023.5F
44100 DUCK FRF   2000      52                N/A     3/ 5
44056 DUCK FRF   2000      47                N/A     2/ 5
OREGON INLET NC  2000   43 49  340/  7/ 11 1024.5R
HATTERAS NC      2000   44 52   20/ 13/ 15 1024.1R
DIAMOND SHLS NC  2000   49                 1023.6F   3/ 7
CAPE LOOKOUT NC  1900   44      10/ 12/ 14 1023.3S
$$



USA.gov is the U.S. government's official web portal to all federal, state and local government web resources and services.